Home > Weather > Rastatt > Past weeks

Flag for Germany Weather for the Past 2 Weeks in Rastatt, Baden-Württemberg, Germany

Now
32 °F

Clear.


Feels Like: 32 °F
Forecast: 43 / 53 °F
Wind: 1 mph from North

Location: Karlsruhe - Baden Wurttemberg

Current Time: Feb 7, 2016 at 4:53:35 AM

Latest Report: Feb 7, 2016 at 3:50 AM


Visibility: 10 mi

Pressure: 29.65 "Hg

Humidity: 100%

Dew point: 32 °F

Location of RastattLocation

Historic Weather in Rastatt — Graph

°F

Rastatt Temperature Yesterday

Maximum temperature yesterday: 59 °F (at 1:50 PM)
Minimum temperature yesterday: 30 °F (at 5:50 AM)
Average temperature yesterday: 44 °F

High & Low Weather Summary for the Past Weeks

 TemperatureHumidityPressure
High59 °F (Jan 26, 2:20 PM)100% (Jan 23, 6:20 AM)30.63 "Hg (Jan 23, 6:20 AM)
Low28 °F (Jan 23, 11:20 PM)39% (Feb 6, 3:50 PM)29.68 "Hg (Feb 7, 2:50 AM)
Average46 °F79%30.25 "Hg
* Reported Jan 23 5:20 AM — Feb 7 2:50 AM, Rastatt, Weather by CustomWeather, © 2016

Note: Actual official high and low records may vary slightly from our data, if they occured in-between our weather recording intervals... More about our weather records

Advertising

Rastatt Weather History for the Previous 24 Hours

 ConditionsComfort  
Time TempWeatherWind HumidityBarometerVisibility
2:50 AM
Sun, Feb 7
34 °FClear.2 mph93%29.68 "Hg10 mi
1:20 AM34 °FClear.2 mph93%29.71 "Hg10 mi
12:20 AM34 °FClear.No wind100%29.74 "Hg10 mi
11:50 PM
Sat, Feb 6
36 °FClear.2 mph93%29.74 "Hg10 mi
10:50 PM36 °FClear.3 mph93%29.74 "Hg10 mi
9:50 PM37 °FClear.No wind93%29.77 "Hg10 mi
9:20 PM39 °FClear.1 mph87%29.77 "Hg10 mi
8:50 PM39 °FClear.3 mph87%29.80 "Hg10 mi
8:20 PM41 °FClear.1 mph81%29.80 "Hg10 mi
7:50 PM41 °FClear.3 mph76%29.80 "Hg10 mi
7:20 PM45 °FClear.1 mph66%29.83 "Hg10 mi
6:50 PM46 °FClear.3 mph66%29.83 "Hg10 mi
6:20 PM52 °FClear.2 mph54%29.83 "Hg10 mi
5:50 PM52 °FClear.6 mph54%29.83 "Hg10 mi
5:20 PM54 °FSunny.7 mph51%29.86 "Hg10 mi
4:50 PM57 °FSunny.8 mph44%29.86 "Hg10 mi
4:20 PM59 °FSunny.8 mph45%29.89 "Hg10 mi
3:50 PM59 °FSunny.10 mph39%29.89 "Hg10 mi
3:20 PM59 °FSunny.13 mph42%29.92 "Hg10 mi
2:50 PM59 °FSunny.10 mph45%29.95 "Hg10 mi
2:20 PM59 °FSunny.10 mph45%29.95 "Hg10 mi
1:50 PM59 °FSunny.10 mph45%29.98 "Hg10 mi
1:20 PM57 °FSunny.10 mph51%30.01 "Hg10 mi
12:50 PM57 °FPassing clouds.9 mph55%30.01 "HgN/A
12:20 PM55 °FSunny.12 mph55%30.04 "Hg10 mi
11:50 AM54 °FSunny.9 mph58%30.04 "Hg10 mi
11:20 AM46 °FPassing clouds.5 mph100%30.04 "HgN/A
10:50 AM39 °FSunny.3 mph100%30.07 "Hg10 mi
10:20 AM39 °FSunny.3 mph100%30.07 "Hg10 mi
9:50 AM36 °FSunny.2 mph100%30.07 "Hg10 mi
9:20 AM34 °FSunny.5 mph93%30.07 "Hg10 mi
8:50 AM32 °FSunny.5 mph100%30.07 "Hg10 mi
8:20 AM30 °FFog.3 mph100%30.09 "HgN/A
7:50 AM30 °FLight fog.1 mph100%30.07 "HgN/A
7:20 AM32 °FClear.2 mph100%30.09 "Hg10 mi
6:50 AM30 °FClear.1 mph100%30.07 "Hg10 mi
6:20 AM30 °FClear.2 mph100%30.09 "Hg10 mi
5:50 AM30 °FClear.2 mph100%30.09 "Hg10 mi
4:50 AM32 °FClear.2 mph100%30.09 "Hg6 mi
Weather by CustomWeather, © 2016

See weather overviewHow to use our weather pages